This demonstration page uses our WeatherBlox Daily Observations layout. Learn more.

Left ArrowRight Arrow

39.51506, -84.39828

Hourly Observations for April 5, 2015

Temp ( °F °C ) Dew Point ( °F °C ) Humidity (%) Winds ( mph kmh ) Pressure ( in mb ) Visibility ( mi km ) Precip ( " mm )
12:15 am 00:15 Clear 42 5.4 31 -0.5 66 66 SW 5 7 30.33 1027 10 16.0934 N/A
12:35 am 00:35 Clear 42 5.5 32 undefined 68 68 WSW 5 7 30.33 1027 10 16.0934 N/A
12:55 am 00:55 Clear 42 5.7 32 -0.1 67 67 SW 5 7 30.3 1026 10 16.0934 N/A
1:15 am 01:15 Clear 42 5.6 30 -1.2 62 62 SW 3 6 30.3 1026 10 16.0934 N/A
1:35 am 01:35 Clear 40 4.3 31 -0.7 70 70 N N/A 30.3 1026 10 16.0934 N/A
1:55 am 01:55 Clear 37 2.7 31 -0.5 80 80 SW 3 6 30.3 1026 10 16.0934 N/A
2:15 am 02:15 Clear 37 2.6 32 -0.1 83 83 WSW 3 6 30.3 1026 10 16.0934 N/A
2:35 am 02:35 Clear 37 2.6 32 undefined 83 83 WSW 3 6 30.3 1026 10 16.0934 N/A
2:55 am 02:55 Clear 36 2.4 32 -0.2 83 83 N N/A 30.3 1026 10 16.0934 N/A
3:15 am 03:15 Clear 35 1.9 31 -0.4 85 85 N N/A 30.3 1026 10 16.0934 N/A
3:35 am 03:35 Clear 37 2.6 33 0.3 85 85 WSW 3 6 30.27 1025 10 16.0934 N/A
3:55 am 03:55 Clear 34 1.2 30 -1.1 85 85 SW 5 7 30.27 1025 10 16.0934 N/A
4:15 am 04:15 Clear 34 1.2 31 -0.8 87 87 SW 3 6 30.27 1025 10 16.0934 N/A
4:35 am 04:35 Clear 37 2.6 32 undefined 83 83 WSW 3 6 30.27 1025 10 16.0934 N/A
4:55 am 04:55 Clear 37 2.6 32 undefined 83 83 N N/A 30.27 1025 10 16.0934 N/A
5:15 am 05:15 Clear 39 3.9 33 0.5 79 79 N N/A 30.27 1025 10 16.0934 N/A
5:35 am 05:35 Clear 37 2.6 32 undefined 83 83 N N/A 30.27 1025 10 16.0934 N/A
5:55 am 05:55 Clear 37 2.6 32 undefined 83 83 N N/A 30.27 1025 10 16.0934 N/A
6:15 am 06:15 Clear 34 1.2 30 -1 85 85 N N/A 30.27 1025 10 16.0934 N/A
6:35 am 06:35 Clear 37 2.6 33 0.3 85 85 N N/A 30.3 1026 10 16.0934 N/A
6:55 am 06:55 Clear 37 2.6 31 -0.4 81 81 N N/A 30.3 1026 10 16.0934 N/A
7:15 am 07:15 Clear 34 1.2 30 -1 85 85 N N/A 30.3 1026 10 16.0934 N/A
7:35 am 07:35 Sunny 34 1.2 31 -0.7 87 87 N N/A 30.3 1026 10 16.0934 N/A
7:55 am 07:55 Sunny 34 1.2 31 -0.7 87 87 N N/A 30.3 1026 10 16.0934 N/A
8:15 am 08:15 Sunny 34 1.2 31 -0.6 88 88 WSW 3 6 30.3 1026 10 16.0934 N/A
8:35 am 08:35 Sunny 38 3.4 34 1.2 86 86 W 3 6 30.3 1026 10 16.0934 N/A
8:55 am 08:55 Sunny 42 5.6 33 0.8 72 72 N N/A 30.3 1026 10 16.0934 N/A
9:15 am 09:15 Sunny 45 7.1 31 -0.3 60 60 SSW 3 6 30.3 1026 10 16.0934 N/A
9:35 am 09:35 Sunny 49 9.2 34 0.9 56 56 SW 6 9 30.3 1026 10 16.0934 N/A
9:55 am 09:55 Sunny 49 9.6 33 0.5 53 53 SW 5 7 30.3 1026 10 16.0934 N/A
10:15 am 10:15 Sunny 50 10.2 32 0.1 50 50 SSW 5 7 30.27 1025 10 16.0934 N/A
10:35 am 10:35 Sunny 55 12.5 31 -0.4 41 41 SW 12 19 30.27 1025 10 16.0934 N/A
10:55 am 10:55 Sunny 55 12.5 29 -1.8 37 37 SW 12 19 30.27 1025 10 16.0934 N/A
11:15 am 11:15 Sunny 57 13.8 23 -4.9 27 27 WSW 12 19 30.27 1025 10 16.0934 N/A
11:35 am 11:35 Sunny 57 13.8 27 -2.6 32 32 SW 10 17 30.27 1025 10 16.0934 N/A
11:55 am 11:55 Sunny 59 15 26 -3.1 29 29 SSW 12 19 30.27 1025 10 16.0934 N/A
12:15 pm 12:15 Sunny 60 15.3 22 -5.4 24 24 SW 12 19 30.24 1024 10 16.0934 N/A
12:35 pm 12:35 Sunny 60 15.3 15 -9.2 18 18 SW 14 22 30.24 1024 10 16.0934 N/A
12:55 pm 12:55 Sunny 60 15.8 15 -9.6 17 17 WSW 17 28 30.24 1024 10 16.0934 N/A
1:15 pm 13:15 Sunny 61 16 10 -12.5 13 13 WSW 16 26 30.24 1024 10 16.0934 N/A
1:35 pm 13:35 Sunny 61 16 13 -10.3 15 15 SW 12 19 30.21 1023 10 16.0934 N/A
1:55 pm 13:55 Sunny 61 16 15 -9.7 16 16 SW 17 28 30.21 1023 10 16.0934 N/A
2:15 pm 14:15 Sunny 62 16.6 17 -8.5 17 17 SSW 13 20 30.21 1023 10 16.0934 N/A
2:35 pm 14:35 Sunny 62 16.8 17 -8.4 17 17 SSW 9 15 30.15 1021 10 16.0934 N/A
2:55 pm 14:55 Sunny 63 17.4 12 -10.9 13 13 SSW 13 20 30.15 1021 10 16.0934 N/A
3:15 pm 15:15 Sunny 63 17.2 13 -10.8 14 14 SSW 12 19 30.15 1021 10 16.0934 N/A
3:35 pm 15:35 Sunny 64 18 15 -9.5 14 14 SW 15 24 30.15 1021 10 16.0934 N/A
3:55 pm 15:55 Sunny 64 18 12 -11.1 13 13 SW 13 20 30.12 1020 10 16.0934 N/A
4:15 pm 16:15 Sunny 64 18 13 -10.8 13 13 SSW 13 20 30.12 1020 10 16.0934 N/A
4:35 pm 16:35 Sunny 64 17.9 13 -10.6 13 13 SSW 14 22 30.12 1020 10 16.0934 N/A
4:55 pm 16:55 Sunny 64 18 12 -11.3 13 13 SW 12 19 30.12 1020 10 16.0934 N/A
5:15 pm 17:15 Sunny 64 18 10 -12.5 11 11 SSW 12 19 30.09 1019 10 16.0934 N/A
5:35 pm 17:35 Sunny 64 18 9 -13 11 11 SW 10 17 30.09 1019 10 16.0934 N/A
5:55 pm 17:55 Sunny 64 18 9 -12.7 11 11 SW 7 11 30.09 1019 10 16.0934 N/A
6:15 pm 18:15 Sunny 63 17.3 11 -11.8 13 13 SSW 10 17 30.09 1019 10 16.0934 N/A
6:35 pm 18:35 Sunny 64 17.8 10 -12.1 12 12 SSW 12 19 30.09 1019 10 16.0934 N/A
6:55 pm 18:55 Sunny 63 17 16 -9.1 16 16 SW 7 11 30.09 1019 10 16.0934 N/A
7:15 pm 19:15 Sunny 62 16.6 17 -8.6 17 17 SSW 8 13 30.12 1020 10 16.0934 N/A
7:35 pm 19:35 Sunny 61 16 19 -7.1 20 20 SSW 8 13 30.15 1021 10 16.0934 N/A
7:55 pm 19:55 Sunny 60 15.3 22 -5.4 24 24 SW 8 13 30.15 1021 10 16.0934 N/A
8:15 pm 20:15 Clear 57 13.8 25 -4 29 29 SSW 8 13 30.15 1021 10 16.0934 N/A
8:35 pm 20:35 Clear 57 13.8 23 -5 27 27 SW 5 7 30.15 1021 10 16.0934 N/A
8:55 pm 20:55 Clear 55 12.5 27 -2.8 35 35 SW 3 6 30.15 1021 10 16.0934 N/A
9:15 pm 21:15 Clear 53 11.8 29 -1.6 40 40 N N/A 30.15 1021 10 16.0934 N/A
9:35 pm 21:35 Clear 49 9.6 33 0.3 53 53 N N/A 30.15 1021 10 16.0934 N/A
9:55 pm 21:55 Clear 49 9.6 34 1 55 55 N N/A 30.15 1021 10 16.0934 N/A
10:15 pm 22:15 Clear 49 9.6 36 2.3 61 61 W 3 6 30.15 1021 10 16.0934 N/A
10:35 pm 22:35 Clear 45 7 30 -1.3 56 56 W 3 6 30.15 1021 10 16.0934 N/A
10:55 pm 22:55 Clear 43 5.9 32 -0.2 65 65 N N/A 30.15 1021 10 16.0934 N/A
11:15 pm 23:15 Clear 43 6 33 0.5 68 68 N N/A 30.15 1021 10 16.0934 N/A
11:35 pm 23:35 Clear 43 6 34 0.9 70 70 N N/A 30.15 1021 10 16.0934 N/A
11:55 pm 23:55 Clear 43 5.9 32 0.2 67 67 N N/A 30.15 1021 10 16.0934 N/A

Powered by AerisWeather